Content
SEND FEEDBACK

Daily
Averages
Monthly
Summary
Martinique

LA MEDAILLE, MARTINIQUE


Home > Caribbean > Martinique
Elevation: 144 meters     Latitude: 14 36N     Longitude: 061 06W

WEATHER
 
SELECT A DAY
Number of Records: 198,134;   Date Range: 6/30/96 - 7/11/14
 
SHARE

PRINT THIS DATA

[ ← Previous Day ]
WEATHER ALMANAC - 31 JANUARY, 2013
[ Next Day → ]
[ °F ]   °C
Weather ElementAverageHighLow
Temperature26.1 °C29 °C (11:09 am)23 °C (3:00 am)
Dewpoint19.8 °C21.1 °C (2:00 am)18 °C (1:00 pm)
Humidity68.4 %88 % (3:00 am)47 % (2:00 pm)
Barometer1015.9 hPa1017.3 hPa (8:30 am)1014.2 hPa (3:00 pm)
Wind Speed23.5 km/h33.3 km/h (12:30 pm)
Wind Gust38.9 km/h (2:00 am)
Weather ElementAverage
Visibility11.7 km
Wind DirectionENE (70.6 °)

Weather ElementTotal
Precipitation---
Cooling Degree Days7.7 (Base 18.3)
Growing Degree Days16 (Base 10)
Averaged from 50 records on 31 January, 2013
WEATHER CONDITIONS BREAKOUT
WIND DIRECTION BREAKOUT
WEATHER BY HOUR - 31 JANUARY, 2013
[ °F ]   °C
Local TimeTemperatureDewpointHumidityBarometerVisibilityWind DirectionWind SpeedGust SpeedPrecipitationEventsConditions
12:30 AM24 °C20 °C78 %1016.3 hPa10 kmENE (60°)20.4 km/hScattered Clouds
1:00 AM25 °C20 °C74 %1015.2 hPa10 kmENE (70°)18.5 km/hMostly Cloudy
1:30 AM25 °C20 °C74 %1015.2 hPa10 kmEast (80°)16.7 km/hMostly Cloudy
2:00 AM23.9 °C21.1 °C79 %1015.9 hPa35.4 kmEast (80°)18.5 km/hClear
2:00 AM24 °C21 °C83 %1015.2 hPa10 kmEast (80°)18.5 km/h38.9 km/hMostly Cloudy
2:30 AM25 °C20 °C74 %1015.2 hPa10 kmEast (80°)18.5 km/hPartly Cloudy
3:00 AM23 °C21 °C88 %1015.2 hPa10 kmENE (70°)18.5 km/hMostly Cloudy
3:30 AM23 °C21 °C88 %1015.2 hPa10 kmEast (100°)13 km/hMostly Cloudy
4:00 AM24 °C21 °C83 %1015.2 hPa10 kmENE (60°)14.8 km/hMostly Cloudy
4:30 AM24 °C20 °C78 %1015.2 hPa10 kmENE (70°)16.7 km/hMostly Cloudy
5:00 AM24 °C21 °C83 %1015.2 hPa10 kmENE (70°)13 km/hMostly Cloudy
5:30 AM24 °C20 °C78 %1015.2 hPa10 kmENE (70°)14.8 km/hScattered Clouds
6:00 AM24 °C20 °C78 %1015.2 hPa10 kmENE (60°)16.7 km/hScattered Clouds
6:30 AM24 °C20 °C78 %1015.2 hPa10 kmENE (60°)16.7 km/hMostly Cloudy
7:00 AM24 °C20 °C78 %1016.3 hPa10 kmENE (70°)18.5 km/hScattered Clouds
7:30 AM25 °C19 °C69 %1016.3 hPa10 kmENE (70°)25.9 km/hPartly Cloudy
8:00 AM25.6 °C19.4 °C60 %1016.9 hPa14.5 kmENE (70°)25.9 km/hPartly Cloudy
8:00 AM26 °C19 °C65 %1016.3 hPa10 kmENE (70°)25.9 km/hPartly Cloudy
8:30 AM26 °C20 °C69 %1017.3 hPa10 kmEast (80°)25.9 km/hPartly Cloudy
9:00 AM27 °C20 °C65 %1017.3 hPa10 kmEast (80°)29.6 km/hPartly Cloudy
9:30 AM27 °C20 °C65 %1017.3 hPa10 kmENE (60°)25.9 km/hPartly Cloudy
10:00 AM27 °C20 °C65 %1017.3 hPa10 kmENE (70°)29.6 km/hMostly Cloudy
10:30 AM27 °C20 °C65 %1017.3 hPa10 kmEast (80°)31.5 km/hMostly Cloudy
11:09 AM29 °C20 °C58 %1017.3 hPa10 kmEast (80°)31.5 km/hMostly Cloudy
11:30 AM28 °C19 °C58 %1017.3 hPa10 kmEast (90°)31.5 km/hScattered Clouds
12:00 PM29 °C19 °C55 %1017.3 hPa10 kmEast (80°)31.5 km/hScattered Clouds
12:30 PM29 °C19 °C55 %1016.3 hPa10 kmEast (80°)33.3 km/hScattered Clouds
1:00 PM29 °C18 °C51 %1016.3 hPa10 kmEast (80°)29.6 km/hScattered Clouds
1:30 PM29 °C19 °C55 %1015.2 hPa10 kmEast (80°)29.6 km/hScattered Clouds
2:00 PM28.9 °C19.4 °C47 %1015.6 hPa25.7 kmENE (70°)27.8 km/hPartly Cloudy
2:00 PM29 °C19 °C55 %1015.2 hPa10 kmEast (80°)29.6 km/hScattered Clouds
2:30 PM29 °C19 °C55 %1015.2 hPa10 kmEast (90°)29.6 km/hScattered Clouds
3:00 PM29 °C20 °C58 %1014.2 hPa10 kmEast (90°)29.6 km/hScattered Clouds
3:30 PM28 °C20 °C62 %1014.2 hPa10 kmENE (70°)31.5 km/hScattered Clouds
4:00 PM28 °C20 °C62 %1014.2 hPa10 kmENE (70°)29.6 km/hScattered Clouds
5:00 PM27 °C20 °C65 %1014.2 hPa10 kmENE (60°)22.2 km/hScattered Clouds
5:30 PM27 °C19 °C61 %1015.2 hPa10 kmENE (60°)22.2 km/hScattered Clouds
6:00 PM26 °C19 °C65 %1015.2 hPa10 kmENE (60°)20.4 km/hScattered Clouds
6:30 PM26 °C20 °C69 %1015.2 hPa10 kmENE (60°)18.5 km/hScattered Clouds
7:00 PM26 °C20 °C69 %1015.2 hPa10 kmENE (60°)20.4 km/hPartly Cloudy
7:30 PM26 °C20 °C69 %1015.2 hPa10 kmENE (60°)20.4 km/hMostly Cloudy
8:00 PM25.6 °C20 °C63 %1015.9 hPa49.9 kmENE (60°)22.2 km/hClear
8:00 PM25 °C20 °C74 %1015.2 hPa10 kmENE (60°)22.2 km/hMostly Cloudy
8:30 PM25 °C20 °C74 %1015.2 hPa10 kmENE (60°)18.5 km/hScattered Clouds
9:00 PM26 °C20 °C69 %1016.3 hPa10 kmENE (60°)22.2 km/hMostly Cloudy
9:30 PM26 °C20 °C69 %1016.3 hPa10 kmENE (60°)22.2 km/h
10:00 PM26 °C20 °C69 %1016.3 hPa10 kmENE (60°)22.2 km/hMostly Cloudy
10:30 PM25 °C19 °C69 %1016.3 hPa10 kmENE (60°)22.2 km/hScattered Clouds
11:00 PM25 °C20 °C74 %1016.3 hPa10 kmENE (70°)29.6 km/hMostly Cloudy
11:30 PM25 °C20 °C74 %1015.2 hPa10 kmENE (60°)27.8 km/hScattered Clouds
Hourly data recorded from TFFF, located 0 kilometers away from La Medaille, Martinique







STORIES FROM OUR PARTNERS